Simultaneous Nadir Overpasses (SNOs) Predictions

Prediction of SNOs between AQUA and METOP-B Satellite Orbit:

Table of predicted SNOs for the next 14.0 days since TLE Epoch: 2/20/2015
Index Date (AQUA) Time (AQUA) Lat,Lon (AQUA) SZA (AQUA ) Date (METOP-B) Time (METOP-B) Lat,Lon (METOP-B) SZA (METOP-B ) Distance(km) Time Diff (sec)
1 02/23/2015 08:43:36 -73.69,-136.29 96.32 02/23/2015 08:42:43 -73.70,-136.32 96.31 0.94 53
2 02/23/2015 09:33:05 73.77, 31.18 83.75 02/23/2015 09:33:22 73.76, 31.15 83.74 1.43 17
3 02/23/2015 10:22:44 -74.47,-162.79 95.50 02/23/2015 10:23:49 -74.47,-159.75 95.64 90.46 65
4 02/26/2015 04:17:48 -73.74, -69.94 97.32 02/26/2015 04:17:08 -73.74, -69.83 97.32 3.24 40
5 02/26/2015 05:07:16 73.77, 97.64 82.70 02/26/2015 05:07:47 73.79, 97.63 82.73 2.71 31
6 02/28/2015 23:51:57 -73.73, -3.44 98.40 02/28/2015 23:51:33 -73.72, -3.48 98.40 1.43 24
7 03/01/2015 00:41:26 73.81, 164.01 81.69 03/01/2015 00:42:11 73.82, 164.10 81.69 2.84 45
8 03/03/2015 18:36:34 73.37,-103.84 80.15 03/03/2015 18:35:24 73.36,-105.23 80.22 44.22 70
9 03/03/2015 19:26:07 -73.75, 62.97 99.45 03/03/2015 19:25:58 -73.75, 62.98 99.45 0.89 9
10 03/03/2015 20:15:35 73.79,-129.47 80.58 03/03/2015 20:16:37 73.79,-129.57 80.58 3.30 62
11 03/06/2015 14:10:49 73.70, -38.08 79.42 03/06/2015 14:09:43 73.67, -38.11 79.41 2.91 66
12 03/06/2015 15:00:16 -73.77, 129.41 100.52 03/06/2015 15:00:23 -73.76, 129.43 100.53 0.69 7




NCC Satellite Simultaneous Nadir Overpasses (SNOs) Prediction Service
